Terminal Aerodrome Forecast
Issued by NWS Lake Charles, LA

Home | Current Version | Previous Version | Text Only | Print | Product List | Glossary On
Versions: 1 2 3 4 5 6 7 8 9 10 11 12 13 14 15 16 17 18 19 20 21
000
FTUS44 KLCH 010800 AAA
TAFBPT
TAF AMD
KBPT 010857Z 0109/0206 13004KT P6SM VCSH SCT015 BKN100
      TEMPO 0109/0113 4SM -SHRA BKN015 OVC100
     FM011400 15008KT P6SM BKN030=

USA.gov is the U.S. government's official web portal to all federal, state and local government web resources and services.